Change the Weather History Date:

Saturday, January 19, 2013

  Actual Average Record
Temperature  
Mean Temperature 35 °F -  
Max Temperature 37 °F 47 °F 63 °F (2005)
Min Temperature 33 °F 36 °F 18 °F (1954)
Degree Days  
Heating Degree Days 30    
Moisture  
Dew Point 32 °F    
Average Humidity 88    
Maximum Humidity 93    
Minimum Humidity 81    
Precipitation  
Precipitation 0.00 in - - ()
Sea Level Pressure  
Sea Level Pressure 30.37 in    
Wind  
Wind Speed 2 mph (NE)    
Max Wind Speed 6 mph    
Max Gust Speed -    
Visibility 2 miles    
Events Fog    
Averages and records for this station are not official NWS values.
T = Trace of Precipitation, MM = Missing Value Source: NWS Daily Summary

Daily Weather History Graph

Daily Weather History Graph

Search for Another Location

Airport or City:

Trip Planner

Search our weather history database for the weather conditions in past years. The results will help you decide how hot, cold, wet, or windy it might be!

Date:

Astronomy

Jan. 19, 2013 Rise Set
Actual Time 7:49 AM PST 4:51 PM PST
Civil Twilight 7:14 AM PST 5:25 PM PST
Nautical Twilight 6:37 AM PST 6:03 PM PST
Astronomical Twilight 6:00 AM PST 6:40 PM PST
Moon 11:25 AM PST (1/19) 1:22 AM PST (1/19)
Length of Visible Light 10h 10m
Length of Day
9h 02m
First Quarter, 58% of the Moon is Illuminated
Jan 19
First Quarter
Jan 26
Full
Feb 3
Last Quarter
Feb 9
New
Feb 17
First Quarter

Hourly Weather History & Observations

Time (PST) Temp. Windchill Dew Point Humidity Pressure Visibility Wind Dir Wind Speed Gust Speed Precip Events Conditions
12:53 AM 33.1 °F 30.0 °F 30.9 °F 92% 30.35 in 1.5 mi NNE 3.5 mph - N/A   Overcast
1:53 AM 33.1 °F - 30.9 °F 92% 30.35 in 1.0 mi Calm Calm - N/A   Mist
2:53 AM 33.1 °F - 30.9 °F 92% 30.36 in 1.0 mi Calm Calm - N/A   Mist
3:53 AM 34.0 °F - 32.0 °F 92% 30.36 in 1.0 mi Calm Calm - N/A   Overcast
4:53 AM 34.0 °F - 32.0 °F 92% 30.36 in 0.5 mi Calm Calm - N/A Fog Fog
5:53 AM 34.0 °F - 32.0 °F 92% 30.37 in 0.5 mi Calm Calm - N/A Fog Fog
6:13 AM 33.8 °F - 32.0 °F 93% 30.37 in 1.0 mi Calm Calm - N/A   Mist
6:53 AM 34.0 °F 31.0 °F 32.0 °F 92% 30.36 in 1.5 mi Variable 3.5 mph - N/A   Overcast
7:00 AM 33.8 °F 29.6 °F 30.2 °F 87% 30.36 in 3.0 mi NE 4.6 mph - N/A   Overcast
7:07 AM 33.8 °F 30.8 °F 30.2 °F 87% 30.36 in 1.5 mi NNE 3.5 mph - N/A   Overcast
7:53 AM 33.1 °F 27.7 °F 30.9 °F 92% 30.37 in 1.5 mi NE 5.8 mph - N/A   Overcast
8:53 AM 34.0 °F - 30.9 °F 89% 30.38 in 1.2 mi Calm Calm - N/A   Overcast
9:53 AM 33.1 °F 27.7 °F 30.0 °F 89% 30.40 in 1.5 mi ENE 5.8 mph - N/A   Overcast
10:53 AM 35.1 °F - 30.9 °F 85% 30.39 in 1.5 mi Calm Calm - N/A   Overcast
11:53 AM 36.0 °F - 32.0 °F 86% 30.38 in 2.0 mi Calm Calm - N/A   Overcast
12:40 PM 35.6 °F - 32.0 °F 87% 30.36 in 2.0 mi Calm Calm - N/A   Overcast
12:53 PM 36.0 °F - 32.0 °F 86% 30.36 in 2.0 mi Calm Calm - N/A   Overcast
1:00 PM 37.4 °F 34.9 °F 32.0 °F 81% 30.36 in 4.0 mi NE 3.5 mph - N/A   Haze
1:53 PM 37.0 °F - 32.0 °F 82% 30.35 in 4.0 mi Calm Calm - N/A   Haze
2:53 PM 37.0 °F 34.5 °F 32.0 °F 82% 30.35 in 4.0 mi ENE 3.5 mph - N/A   Haze
3:53 PM 37.0 °F 33.3 °F 32.0 °F 82% 30.35 in 6.0 mi NE 4.6 mph - N/A   Haze
4:53 PM 36.0 °F 31.1 °F 32.0 °F 86% 30.36 in 4.0 mi NE 5.8 mph - N/A   Overcast
5:53 PM 37.0 °F - 32.0 °F 82% 30.36 in 9.0 mi Calm Calm - N/A   Overcast
6:53 PM 35.1 °F 32.2 °F 32.0 °F 89% 30.37 in 4.0 mi NNW 3.5 mph - N/A   Overcast
7:53 PM 36.0 °F - 32.0 °F 86% 30.38 in 4.0 mi Calm Calm - N/A   Overcast
8:35 PM 35.6 °F - 32.0 °F 87% 30.38 in 7.0 mi Calm Calm - N/A   Overcast
8:53 PM 35.1 °F - 32.0 °F 89% 30.38 in 2.0 mi Calm Calm - N/A   Overcast
9:53 PM 35.1 °F - 32.0 °F 89% 30.39 in 1.5 mi Calm Calm - N/A   Overcast
10:53 PM 35.1 °F - 33.1 °F 92% 30.38 in 1.0 mi Calm Calm - N/A   Mist
11:22 PM 35.6 °F - 33.8 °F 93% 30.38 in 0.8 mi Calm Calm - N/A   Mist
11:53 PM 35.1 °F - 33.1 °F 92% 30.38 in 0.8 mi Calm Calm - N/A   Mist